Location: Casaglia
(44.0333°N, 11.5167°E)
Time: 03:40:40
(UTC+00:00)

Cosmos 2322 - Pass Details

Date: 07 June 2020
Orbit: 840 x 855 km, 71.0° (Epoch: 07 July)

Event Time Altitude Azimuth Distance (km) Brightness Sun altitude
Exits shadow 02:43:40 - 210° (SSW) 2,665 5.7 -7.6°
Reaches altitude 10° 02:44:10 10° 211° (SSW) 2,473 5.5 -7.5°
Maximum altitude 02:49:51 74° 296° (WNW) 889 3.8 -6.8°
Drops below altitude 10° 02:55:36 10° 22° (NNE) 2,495 7.3 -6.0°
Sets 02:58:05 0° 24° (NNE) 3,436 8.2 -5.7°
